Disclaimer

Please do not use the information listed here in-flight or in-navigation, as they are not provided to us by the airports but are provided by volunteers, so they might be outdated.

Search


Regions


Airport information page

Radio informations:
TUMBES APP/TWR - 118.7 MHz

Airport informations:
Latitude: 03° 33' 09.10" S
Longitude: 080° 22' 52.88" W
Elevation: 115 feet - 35 meters
Operating hours: Remarks
Operating agency: Civil government, landing fees and diplomatic clearance may be required
Timezone: UTC-5
Fuel: N/A

Runway information:
14/32 - 8202 x 148 feet< - >2500 x 45 meters

Recent METARs:
SPME 192300Z 31004KT 9999 BKN012 26/23 Q1009 RMK BIRD HAZARD RWY 32/14 PP000
SPME 192330Z 29004KT 5000 -DZ BKN010 25/24 Q1009
SPME 200000Z 31004KT 1000 RA BR BKN010 24/23 Q1010 RMK BIRD HAZARD RWY 32/14 PP106

Airport on the map: